Radiation Dose at Monitoring Post of Fukushima Daini Nuclear Power Station
Date,Time,MP-1(microSv/h),MP-2(microSv/h),MP-3(microSv/h),MP-4(microSv/h),MP-5(microSv/h),MP-6(microSv/h),MP-7(microSv/h),Wind Direction,Wind Velocity(m/s),Rain
2017/12/21,00:00,0.341,0.208,0.348,0.325,0.307,0.172,0.104,north-northwest,3.9,No
2017/12/21,00:10,0.342,0.207,0.348,0.326,0.307,0.171,0.104,north-northwest,4.0,No
2017/12/21,00:20,0.342,0.208,0.348,0.325,0.308,0.171,0.104,north,5.3,No
2017/12/21,00:30,0.343,0.209,0.347,0.325,0.307,0.172,0.104,north,10.0,No
2017/12/21,00:40,0.341,0.209,0.350,0.326,0.308,0.171,0.104,north,9.8,No
2017/12/21,00:50,0.342,0.209,0.348,0.326,0.307,0.172,0.104,north,10.3,No
2017/12/21,01:00,0.341,0.208,0.351,0.327,0.308,0.171,0.104,north,11.5,No
2017/12/21,01:10,0.341,0.207,0.348,0.325,0.309,0.171,0.104,north,10.7,No
2017/12/21,01:20,0.342,0.208,0.348,0.326,0.307,0.172,0.104,north,10.7,No
2017/12/21,01:30,0.341,0.208,0.349,0.325,0.307,0.171,0.104,north,10.7,No
2017/12/21,01:40,0.342,0.207,0.350,0.325,0.308,0.172,0.104,north,9.8,No
2017/12/21,01:50,0.342,0.208,0.349,0.326,0.309,0.171,0.104,north,11.2,No
2017/12/21,02:00,0.342,0.207,0.349,0.326,0.308,0.171,0.104,north,9.8,No
2017/12/21,02:10,0.341,0.208,0.349,0.325,0.307,0.172,0.104,north,8.7,No
2017/12/21,02:20,0.341,0.208,0.349,0.325,0.309,0.171,0.105,north,9.0,No
2017/12/21,02:30,0.342,0.207,0.351,0.325,0.308,0.171,0.104,north-northwest,9.5,No
2017/12/21,02:40,0.341,0.209,0.349,0.326,0.308,0.172,0.104,north-northwest,9.5,No
2017/12/21,02:50,0.342,0.208,0.349,0.326,0.308,0.171,0.104,north-northwest,10.1,No
2017/12/21,03:00,0.341,0.207,0.348,0.324,0.308,0.170,0.104,north-northwest,9.5,No
2017/12/21,03:10,0.341,0.208,0.349,0.324,0.308,0.171,0.103,north-northwest,10.1,No
2017/12/21,03:20,0.341,0.209,0.349,0.325,0.307,0.171,0.103,north-northwest,9.8,No
2017/12/21,03:30,0.342,0.208,0.348,0.326,0.308,0.171,0.103,north-northwest,9.5,No
2017/12/21,03:40,0.340,0.208,0.349,0.325,0.307,0.171,0.103,north-northwest,8.7,No
2017/12/21,03:50,0.341,0.208,0.350,0.326,0.308,0.171,0.104,north-northwest,9.2,No
2017/12/21,04:00,0.341,0.208,0.348,0.326,0.308,0.171,0.104,north,8.2,No
2017/12/21,04:10,0.341,0.208,0.349,0.325,0.306,0.171,0.103,north-northwest,8.2,No
2017/12/21,04:20,0.342,0.209,0.349,0.326,0.309,0.171,0.104,north,8.2,No
2017/12/21,04:30,0.343,0.208,0.348,0.324,0.308,0.171,0.104,north-northwest,7.9,No
2017/12/21,04:40,0.341,0.207,0.348,0.326,0.307,0.171,0.104,north-northwest,8.5,No
2017/12/21,04:50,0.341,0.207,0.349,0.325,0.307,0.171,0.104,north-northwest,8.4,No
2017/12/21,05:00,0.341,0.207,0.348,0.325,0.307,0.171,0.104,north,9.3,No
2017/12/21,05:10,0.341,0.207,0.348,0.325,0.307,0.170,0.104,north,9.0,No
2017/12/21,05:20,0.342,0.208,0.349,0.326,0.308,0.171,0.103,north,8.7,No
2017/12/21,05:30,0.342,0.208,0.349,0.324,0.308,0.170,0.103,north-northwest,8.1,No
2017/12/21,05:40,0.342,0.208,0.349,0.326,0.307,0.170,0.104,north-northwest,8.5,No
2017/12/21,05:50,0.341,0.208,0.347,0.325,0.307,0.171,0.105,north,9.3,No
2017/12/21,06:00,0.342,0.208,0.349,0.325,0.308,0.170,0.104,north,8.7,No
2017/12/21,06:10,0.341,0.208,0.348,0.323,0.307,0.171,0.104,north,7.9,No
2017/12/21,06:20,0.341,0.208,0.349,0.326,0.307,0.171,0.104,north,7.8,No
2017/12/21,06:30,0.342,0.207,0.349,0.325,0.307,0.171,0.103,north-northwest,7.5,No
2017/12/21,06:40,0.342,0.208,0.349,0.324,0.305,0.170,0.104,north,8.5,No
2017/12/21,06:50,0.341,0.208,0.349,0.327,0.306,0.171,0.104,north,8.8,No
2017/12/21,07:00,0.341,0.207,0.349,0.324,0.307,0.170,0.103,north-northwest,8.7,No
2017/12/21,07:10,0.340,0.208,0.348,0.324,0.308,0.171,0.103,north-northwest,8.2,No
2017/12/21,07:20,0.341,0.208,0.347,0.325,0.306,0.171,0.103,north-northwest,7.9,No
2017/12/21,07:30,0.341,0.207,0.347,0.325,0.306,0.170,0.104,north-northwest,7.9,No
2017/12/21,07:40,0.340,0.208,0.348,0.325,0.306,0.172,0.104,north-northwest,7.3,No
2017/12/21,07:50,0.342,0.208,0.348,0.325,0.306,0.171,0.103,north-northwest,7.0,No
2017/12/21,08:00,0.341,0.208,0.348,0.323,0.307,0.170,0.104,north-northwest,7.6,No
2017/12/21,08:10,0.341,0.206,0.350,0.324,0.306,0.170,0.104,north,7.4,No
2017/12/21,08:20,0.340,0.207,0.349,0.324,0.306,0.170,0.103,north,5.9,No
2017/12/21,08:30,0.341,0.208,0.348,0.325,0.307,0.171,0.103,north,5.3,No
2017/12/21,08:40,0.340,0.208,0.348,0.323,0.307,0.171,0.103,north,5.0,No
2017/12/21,08:50,0.342,0.207,0.349,0.324,0.307,0.170,0.103,north,5.2,No
2017/12/21,09:00,0.340,0.208,0.349,0.324,0.306,0.170,0.103,north,4.3,No
2017/12/21,09:10,0.340,0.208,0.349,0.323,0.307,0.169,0.103,north-northwest,3.5,No
2017/12/21,09:20,0.340,0.208,0.350,0.324,0.307,0.170,0.104,north,3.5,No
2017/12/21,09:30,0.341,0.207,0.347,0.324,0.308,0.171,0.103,north,4.8,No
2017/12/21,09:40,0.340,0.206,0.347,0.324,0.307,0.169,0.103,north-northwest,3.9,No
2017/12/21,09:50,0.340,0.207,0.349,0.324,0.306,0.170,-,north,4.0,No
2017/12/21,10:00,0.339,0.208,0.348,0.324,0.307,0.171,-,north,3.4,No
2017/12/21,10:10,0.341,0.206,0.348,0.324,0.307,0.172,-,north-northeast,3.5,No
2017/12/21,10:20,0.341,0.206,0.347,0.325,0.309,0.170,-,northeast,3.6,No
2017/12/21,10:30,0.339,0.207,0.347,0.323,0.307,0.171,-,north-northeast,5.4,No
2017/12/21,10:40,0.339,0.206,0.349,0.326,0.308,0.172,-,north-northeast,5.6,No
2017/12/21,10:50,0.341,0.208,0.347,0.324,0.308,0.171,-,north-northeast,5.9,No
2017/12/21,11:00,0.339,0.207,0.346,0.325,0.306,0.171,-,north-northeast,5.7,No
2017/12/21,11:10,0.341,0.207,0.348,0.325,0.308,0.170,-,north-northeast,5.7,No
2017/12/21,11:20,0.340,0.206,0.348,0.324,0.307,0.171,-,north-northeast,5.5,No
2017/12/21,11:30,0.340,0.208,0.346,0.324,0.308,0.171,-,north-northeast,5.9,No
2017/12/21,11:40,0.339,0.208,0.347,0.326,0.309,0.171,-,north-northeast,5.5,No
2017/12/21,11:50,0.340,0.208,0.348,0.323,0.307,0.172,-,north-northeast,4.2,No
2017/12/21,12:00,0.339,0.208,0.346,0.324,0.309,0.171,-,north-northeast,4.8,No
2017/12/21,12:10,0.341,0.207,0.346,0.325,0.307,0.170,-,north-northeast,5.6,No
2017/12/21,12:20,0.338,0.207,0.347,0.323,0.308,0.171,-,north-northeast,4.8,No
2017/12/21,12:30,0.340,0.208,0.346,0.326,0.309,0.170,-,north-northeast,5.9,No
2017/12/21,12:40,0.340,0.207,0.348,0.324,0.306,0.171,-,northeast,4.8,No
2017/12/21,12:50,0.339,0.207,0.347,0.326,0.309,0.171,-,north-northeast,6.5,No
2017/12/21,13:00,0.340,0.207,0.347,0.324,0.308,0.171,-,north-northeast,6.3,No
2017/12/21,13:10,0.341,0.208,0.349,0.325,0.308,0.170,-,north-northeast,5.1,No
2017/12/21,13:20,0.340,0.208,0.349,0.323,0.309,0.171,-,north-northeast,6.3,No
2017/12/21,13:30,0.341,0.206,0.347,0.325,0.307,0.171,-,north-northeast,5.6,No
2017/12/21,13:40,0.340,0.207,0.349,0.324,0.308,0.171,-,north-northeast,5.0,No
2017/12/21,13:50,0.338,0.206,0.347,0.323,0.310,0.171,-,north-northeast,7.3,No
2017/12/21,14:00,0.339,0.207,0.347,0.325,0.309,0.170,-,north,6.3,No
2017/12/21,14:10,0.339,0.208,0.349,0.323,0.307,0.171,-,north,5.7,No
2017/12/21,14:20,0.340,0.208,0.347,0.325,0.309,0.171,-,north,4.6,No
2017/12/21,14:30,0.340,0.207,0.348,0.325,0.307,0.170,-,north,5.1,No
2017/12/21,14:40,0.342,0.206,0.348,0.324,0.308,0.169,-,north,5.9,No
2017/12/21,14:50,0.341,0.208,0.347,0.326,0.309,0.171,-,north-northeast,3.4,No
2017/12/21,15:00,0.340,0.209,0.348,0.324,0.307,0.170,-,north-northeast,2.0,No
2017/12/21,15:10,0.341,0.207,0.347,0.325,0.309,0.170,0.103,north,1.8,No
2017/12/21,15:20,0.341,0.209,0.348,0.325,0.310,0.171,0.102,north-northeast,2.3,No
2017/12/21,15:30,0.341,0.208,0.348,0.325,0.307,0.171,0.102,north-northeast,0.8,No
2017/12/21,15:40,0.340,0.207,0.347,0.325,0.308,0.170,0.102,-,CALM,No
2017/12/21,15:50,0.340,0.207,0.346,0.326,0.308,0.171,0.102,-,CALM,No
2017/12/21,16:00,0.341,0.207,0.348,0.327,0.308,0.170,0.102,-,CALM,No
2017/12/21,16:10,0.341,0.208,0.350,0.325,0.307,0.171,0.102,north,1.5,No
2017/12/21,16:20,0.340,0.207,0.346,0.325,0.309,0.171,0.102,north,1.2,No
2017/12/21,16:30,0.340,0.207,0.347,0.326,0.308,0.171,0.102,north,0.6,No
2017/12/21,16:40,0.341,0.208,0.348,0.326,0.308,0.171,0.102,north-northwest,2.7,No
2017/12/21,16:50,0.341,0.208,0.348,0.324,0.308,0.171,0.102,north-northwest,1.9,No
2017/12/21,17:00,0.340,0.207,0.349,0.325,0.308,0.171,0.102,north-northwest,2.1,No
2017/12/21,17:10,0.340,0.207,0.348,0.326,0.307,0.171,0.102,north-northwest,2.4,No
2017/12/21,17:20,0.341,0.208,0.348,0.325,0.306,0.170,0.102,north-northwest,2.3,No
2017/12/21,17:30,0.341,0.208,0.348,0.324,0.307,0.170,0.102,north-northwest,2.2,No
2017/12/21,17:40,0.341,0.207,0.349,0.323,0.307,0.171,0.102,north-northwest,1.4,No
2017/12/21,17:50,0.341,0.207,0.346,0.325,0.307,0.170,0.103,north-northwest,1.3,No
2017/12/21,18:00,0.341,0.207,0.348,0.325,0.307,0.170,0.102,north-northwest,1.6,No
2017/12/21,18:10,0.342,0.208,0.348,0.325,0.307,0.170,0.102,north-northwest,1.5,No
2017/12/21,18:20,0.343,0.208,0.349,0.326,0.307,0.170,0.103,north,1.3,No
2017/12/21,18:30,0.342,0.208,0.348,0.325,0.307,0.171,0.102,northwest,1.6,No
2017/12/21,18:40,0.341,0.207,0.348,0.326,0.307,0.171,0.103,north-northwest,1.6,No
2017/12/21,18:50,0.342,0.207,0.347,0.326,0.307,0.171,0.104,north-northwest,2.1,No
2017/12/21,19:00,0.341,0.208,0.348,0.324,0.307,0.170,0.102,north-northwest,1.4,No
2017/12/21,19:10,0.340,0.208,0.349,0.326,0.307,0.171,0.102,north,0.8,No
2017/12/21,19:20,0.341,0.208,0.347,0.326,0.307,0.171,0.102,north,0.6,No
2017/12/21,19:30,0.341,0.207,0.348,0.325,0.307,0.171,0.102,north,0.6,No
2017/12/21,19:40,0.343,0.207,0.347,0.326,0.308,0.171,0.102,-,CALM,No
2017/12/21,19:50,0.340,0.207,0.349,0.326,0.308,0.171,0.102,north-northeast,0.8,No
2017/12/21,20:00,0.341,0.208,0.349,0.325,0.308,0.171,0.103,north,0.6,No
2017/12/21,20:10,0.341,0.208,0.347,0.325,0.307,0.171,0.103,-,CALM,No
2017/12/21,20:20,0.340,0.208,0.349,0.325,0.308,0.171,0.103,-,CALM,No
2017/12/21,20:30,0.341,0.207,0.348,0.325,0.308,0.172,0.102,-,CALM,No
2017/12/21,20:40,0.342,0.208,0.348,0.326,0.308,0.170,0.103,-,CALM,No
2017/12/21,20:50,0.341,0.207,0.350,0.325,0.307,0.171,0.102,-,CALM,No
2017/12/21,21:00,0.340,0.207,0.348,0.325,0.307,0.172,0.103,-,CALM,No
2017/12/21,21:10,0.342,0.209,0.349,0.326,0.307,0.170,0.102,-,CALM,No
2017/12/21,21:20,0.341,0.208,0.348,0.325,0.307,0.171,0.103,west,0.6,No
2017/12/21,21:30,0.340,0.208,0.348,0.325,0.307,0.171,0.103,west-southwest,0.8,No
2017/12/21,21:40,0.340,0.208,0.349,0.326,0.307,0.171,0.102,south-southwest,1.1,No
2017/12/21,21:50,0.341,0.208,0.349,0.324,0.308,0.171,0.103,-,CALM,No
2017/12/21,22:00,0.342,0.206,0.349,0.323,0.308,0.171,0.102,-,CALM,No
2017/12/21,22:10,0.342,0.208,0.347,0.326,0.308,0.170,0.102,-,CALM,No
2017/12/21,22:20,0.340,0.208,0.347,0.325,0.307,0.170,0.101,-,CALM,No
2017/12/21,22:30,0.340,0.207,0.348,0.326,0.307,0.171,0.103,-,CALM,No
2017/12/21,22:40,0.340,0.207,0.348,0.326,0.306,0.171,0.103,-,CALM,No
2017/12/21,22:50,0.344,0.207,0.348,0.326,0.308,0.171,0.103,west,0.9,No
2017/12/21,23:00,0.341,0.207,0.348,0.325,0.307,0.172,0.102,west,1.8,No
2017/12/21,23:10,0.340,0.208,0.351,0.326,0.307,0.171,0.102,north-northwest,6.2,No
2017/12/21,23:20,0.340,0.206,0.349,0.324,0.305,0.170,0.102,north-northwest,5.6,No
2017/12/21,23:30,0.340,0.207,0.348,0.325,0.307,0.171,0.102,north-northwest,4.8,No
2017/12/21,23:40,0.342,0.208,0.348,0.325,0.308,0.171,0.102,north-northwest,3.7,No
2017/12/21,23:50,0.341,0.208,0.348,0.324,0.308,0.171,0.103,northwest,3.0,No
